When you browse on this site, cookies collect data to enhance your experience and personalize the content and advertising you see.
Visit our Privacy Policy to learn more. By continuing to use the site, you agree to this use of cookies and data.
  • In France
  • List of Countries
  • For 7 days
  • Water Temperature
  • Weather Map
  • Weather Widgets
  • user-avatar
    Login

    Hourly Weather Ad-Dauha

    Today, 7 April, Tuesday

    Time Temperature Precipitation Wind Pressure Humidity
    00:00 +27°C° 0 mm 4 mps 759 mmHg 22%
    01:00 +27°C° 0 mm 3 mps 758 mmHg 22%
    02:00 +27°C° 0 mm 3 mps 758 mmHg 22%
    03:00 +26°C° 0 mm 2 mps 757 mmHg 23%
    04:00 +26°C° 0 mm 3 mps 758 mmHg 23%
    05:00 +27°C° 0 mm 3 mps 758 mmHg 23%
    06:00 +27°C° 0 mm 3 mps 758 mmHg 23%
    07:00 +28°C° 0 mm 3 mps 758 mmHg 21%
    08:00 +30°C° 0 mm 3 mps 759 mmHg 19%
    09:00 +33°C° 0 mm 3 mps 759 mmHg 18%
    10:00 +35°C° 0 mm 3 mps 759 mmHg 17%
    11:00 +36°C° 0 mm 3 mps 758 mmHg 16%
    12:00 +38°C° 0 mm 3 mps 758 mmHg 15%
    13:00 +36°C° 0 mm 3 mps 757 mmHg 18%
    14:00 +35°C° 0 mm 3 mps 757 mmHg 21%
    15:00 +34°C° 0 mm 4 mps 756 mmHg 24%
    16:00 +33°C° 0 mm 3 mps 756 mmHg 28%
    17:00 +30°C° 0 mm 3 mps 756 mmHg 31%
    18:00 +29°C° 0 mm 3 mps 756 mmHg 34%
    19:00 +29°C° 0 mm 3 mps 756 mmHg 34%
    20:00 +29°C° 0 mm 3 mps 756 mmHg 33%
    21:00 +28°C° 0 mm 3 mps 756 mmHg 33%
    22:00 +28°C° 0 mm 3 mps 756 mmHg 32%
    23:00 +28°C° 0 mm 4 mps 756 mmHg 32%

    Tomorrow, 8 April, Wednesday

    Time Temperature Precipitation Wind Pressure Humidity
    00:00 +28°C° 0 mm 4 mps 756 mmHg 31%
    01:00 +28°C° 0 mm 4 mps 755 mmHg 32%
    02:00 +28°C° 0 mm 4 mps 755 mmHg 33%
    03:00 +28°C° 0 mm 4 mps 755 mmHg 33%
    04:00 +28°C° 0 mm 4 mps 755 mmHg 33%
    05:00 +28°C° 0 mm 4 mps 755 mmHg 33%
    06:00 +28°C° 0 mm 4 mps 756 mmHg 32%
    07:00 +30°C° 0 mm 4 mps 756 mmHg 28%
    08:00 +33°C° 0 mm 4 mps 756 mmHg 24%
    09:00 +35°C° 0 mm 3 mps 757 mmHg 20%
    10:00 +36°C° 0 mm 4 mps 756 mmHg 18%
    11:00 +38°C° 0 mm 4 mps 756 mmHg 17%
    12:00 +40°C° 0 mm 5 mps 756 mmHg 15%
    13:00 +40°C° 0 mm 5 mps 755 mmHg 16%
    14:00 +40°C° 0 mm 5 mps 755 mmHg 17%
    15:00 +40°C° 0 mm 5 mps 754 mmHg 18%
    16:00 +37°C° 0 mm 5 mps 754 mmHg 22%
    17:00 +35°C° 0 mm 6 mps 754 mmHg 26%
    18:00 +33°C° 0 mm 6 mps 753 mmHg 30%
    19:00 +33°C° 0 mm 6 mps 754 mmHg 32%
    20:00 +33°C° 0 mm 7 mps 754 mmHg 34%
    21:00 +32°C° 0 mm 7 mps 755 mmHg 36%
    22:00 +32°C° 0 mm 6 mps 755 mmHg 37%
    23:00 +32°C° 0 mm 6 mps 754 mmHg 39%

    Day after tomorrow, 9 April, Thursday

    Time Temperature Precipitation Wind Pressure Humidity
    00:00 +30°C° 0 mm 5 mps 754 mmHg 40%
    01:00 +30°C° 0 mm 5 mps 754 mmHg 40%
    02:00 +30°C° 0 mm 5 mps 754 mmHg 39%
    03:00 +30°C° 0 mm 5 mps 753 mmHg 38%
    04:00 +30°C° 0 mm 5 mps 754 mmHg 35%
    05:00 +30°C° 0 mm 5 mps 755 mmHg 32%
    06:00 +32°C° 0 mm 5 mps 755 mmHg 29%
    07:00 +34°C° 0 mm 5 mps 756 mmHg 25%
    08:00 +36°C° 0 mm 5 mps 756 mmHg 21%
    09:00 +39°C° 0 mm 5 mps 756 mmHg 17%
    10:00 +40°C° 0 mm 5 mps 756 mmHg 17%
    11:00 +40°C° 0 mm 5 mps 756 mmHg 17%
    12:00 +41°C° 0 mm 4 mps 755 mmHg 17%
    13:00 +40°C° 0 mm 5 mps 755 mmHg 20%
    14:00 +39°C° 0 mm 6 mps 754 mmHg 24%
    15:00 +38°C° 0 mm 7 mps 754 mmHg 27%
    16:00 +35°C° 0 mm 7 mps 754 mmHg 32%
    17:00 +34°C° 0 mm 7 mps 754 mmHg 37%
    18:00 +32°C° 0 mm 7 mps 754 mmHg 42%
    19:00 +32°C° 0 mm 7 mps 754 mmHg 43%
    20:00 +32°C° 0 mm 7 mps 754 mmHg 44%
    21:00 +32°C° 0 mm 6 mps 755 mmHg 44%
    22:00 +30°C° 0 mm 6 mps 754 mmHg 45%
    23:00 +30°C° 0 mm 6 mps 754 mmHg 46%

    10 April, Friday

    Time Temperature Precipitation Wind Pressure Humidity
    00:00 +30°C° 0 mm 5 mps 754 mmHg 46%
    01:00 +30°C° 0 mm 5 mps 754 mmHg 46%
    02:00 +30°C° 0 mm 6 mps 753 mmHg 46%
    03:00 +30°C° 0 mm 6 mps 753 mmHg 46%
    04:00 +30°C° 0 mm 6 mps 753 mmHg 46%
    05:00 +30°C° 0 mm 6 mps 753 mmHg 46%
    06:00 +30°C° 0 mm 6 mps 754 mmHg 47%
    07:00 +33°C° 0 mm 6 mps 754 mmHg 40%
    08:00 +35°C° 0 mm 7 mps 754 mmHg 34%
    09:00 +37°C° 0 mm 8 mps 755 mmHg 28%
    10:00 +39°C° 0 mm 7 mps 754 mmHg 23%
    11:00 +41°C° 0 mm 6 mps 754 mmHg 19%
    12:00 +42°C° 0 mm 5 mps 754 mmHg 15%
    13:00 +43°C° 0 mm 5 mps 753 mmHg 14%
    14:00 +43°C° 0 mm 5 mps 753 mmHg 13%
    15:00 +44°C° 0 mm 6 mps 752 mmHg 12%
    16:00 +41°C° 0 mm 5 mps 752 mmHg 14%
    17:00 +40°C° 0 mm 5 mps 752 mmHg 16%
    18:00 +37°C° 0 mm 5 mps 752 mmHg 19%
    19:00 +36°C° 0 mm 6 mps 753 mmHg 22%
    20:00 +35°C° 0 mm 7 mps 753 mmHg 26%
    21:00 +34°C° 0 mm 7 mps 753 mmHg 29%
    22:00 +33°C° 0 mm 7 mps 753 mmHg 33%
    23:00 +33°C° 0 mm 7 mps 753 mmHg 36%

    11 April, Saturday

    Time Temperature Precipitation Wind Pressure Humidity
    00:00 +32°C° 0 mm 6 mps 752 mmHg 39%
    01:00 +32°C° 0 mm 7 mps 752 mmHg 39%
    02:00 +32°C° 0 mm 7 mps 752 mmHg 40%
    03:00 +32°C° 0 mm 7 mps 752 mmHg 41%
    04:00 +32°C° 0 mm 7 mps 752 mmHg 36%
    05:00 +32°C° 0 mm 7 mps 753 mmHg 31%
    06:00 +33°C° 0 mm 8 mps 753 mmHg 27%
    07:00 +35°C° 0 mm 8 mps 754 mmHg 23%
    08:00 +38°C° 0 mm 9 mps 754 mmHg 20%
    09:00 +40°C° 0 mm 9 mps 755 mmHg 16%
    10:00 +40°C° 0 mm 9 mps 754 mmHg 16%
    11:00 +42°C° 0 mm 9 mps 754 mmHg 15%
    12:00 +43°C° 0 mm 9 mps 753 mmHg 14%
    13:00 +43°C° 0 mm 9 mps 753 mmHg 16%
    14:00 +41°C° 0 mm 8 mps 752 mmHg 17%
    15:00 +41°C° 0 mm 8 mps 752 mmHg 19%
    16:00 +39°C° 0 mm 8 mps 752 mmHg 23%
    17:00 +37°C° 0 mm 8 mps 752 mmHg 27%
    18:00 +35°C° 0 mm 7 mps 752 mmHg 31%
    19:00 +34°C° 0 mm 7 mps 752 mmHg 33%
    20:00 +34°C° 0 mm 6 mps 753 mmHg 35%
    21:00 +33°C° 0 mm 6 mps 753 mmHg 37%
    22:00 +33°C° 0 mm 6 mps 753 mmHg 36%
    23:00 +33°C° 0 mm 7 mps 753 mmHg 36%

    12 April, Sunday

    Time Temperature Precipitation Wind Pressure Humidity
    00:00 +33°C° 0 mm 7 mps 752 mmHg 35%
    01:00 +32°C° 0 mm 6 mps 752 mmHg 35%
    02:00 +32°C° 0 mm 6 mps 752 mmHg 35%
    03:00 +30°C° 0 mm 5 mps 752 mmHg 35%
    04:00 +30°C° 0 mm 4 mps 753 mmHg 35%
    05:00 +30°C° 0 mm 3 mps 753 mmHg 34%
    06:00 +29°C° 0 mm 1 mps 754 mmHg 34%
    07:00 +31°C° 0 mm 3 mps 754 mmHg 29%
    08:00 +34°C° 0 mm 4 mps 754 mmHg 25%
    09:00 +36°C° 0 mm 6 mps 755 mmHg 20%
    10:00 +38°C° 0 mm 6 mps 754 mmHg 22%
    11:00 +38°C° 0 mm 6 mps 754 mmHg 24%
    12:00 +38°C° 0 mm 6 mps 754 mmHg 26%
    13:00 +37°C° 0 mm 5 mps 754 mmHg 29%
    14:00 +37°C° 0 mm 4 mps 753 mmHg 32%
    15:00 +36°C° 0 mm 4 mps 753 mmHg 35%
    16:00 +35°C° 0 mm 4 mps 753 mmHg 39%
    17:00 +34°C° 0 mm 4 mps 753 mmHg 43%
    18:00 +33°C° 0 mm 4 mps 753 mmHg 47%
    19:00 +32°C° 0 mm 5 mps 754 mmHg 51%
    20:00 +30°C° 0 mm 5 mps 754 mmHg 56%
    21:00 +29°C° 0 mm 6 mps 755 mmHg 60%
    22:00 +28°C° 0 mm 6 mps 755 mmHg 61%
    23:00 +28°C° 0 mm 6 mps 755 mmHg 62%
    Show more